TimeAST,TemperatureF,Dew PointF,Humidity,Sea Level PressureIn,VisibilityMPH,Wind Direction,Wind SpeedMPH,Gust SpeedMPH,PrecipitationIn,Events,Conditions,WindDirDegrees,DateUTC
2:00 AM,76,74,94,29.99,10,Calm,Calm,,,,Scattered Clouds,,2012-11-01 06:00:00
2:00 AM,75.2,75.2,100,29.98,6.2,Calm,Calm,-,N/A,Thunderstorm,Light Thunderstorm,0,2012-11-01 06:00:00
5:00 AM,73,71,91,29.99,10,Calm,Calm,,,,Partly Cloudy,,2012-11-01 09:00:00
5:00 AM,73.4,71.6,94,29.98,6.2,Calm,Calm,-,N/A,,Mostly Cloudy,0,2012-11-01 09:00:00
8:00 AM,73,71,91,29.99,10,Calm,Calm,,,,Scattered Clouds,,2012-11-01 12:00:00
8:00 AM,73.4,71.6,94,29.98,6.2,Calm,Calm,-,N/A,,Mostly Cloudy,0,2012-11-01 12:00:00
9:00 AM,78.8,73.4,83,29.98,6.2,Calm,Calm,-,N/A,,Partly Cloudy,0,2012-11-01 13:00:00
10:00 AM,84.2,73.4,70,30.01,6.2,North,5.8,-,N/A,,Partly Cloudy,360,2012-11-01 14:00:00
11:00 AM,84.2,73.4,70,30.01,6.2,ENE,5.8,-,N/A,,Partly Cloudy,60,2012-11-01 15:00:00
12:00 PM,84.2,73.4,70,29.98,6.2,ENE,5.8,-,N/A,,Partly Cloudy,60,2012-11-01 16:00:00
1:00 PM,84.2,75.2,74,29.95,6.2,WNW,5.8,-,N/A,,Partly Cloudy,300,2012-11-01 17:00:00
2:00 PM,84.2,75.2,74,29.92,6.2,SE,6.9,-,N/A,,Partly Cloudy,130,2012-11-01 18:00:00
3:00 PM,86.0,75.2,70,29.92,6.2,ENE,5.8,-,N/A,,Partly Cloudy,60,2012-11-01 19:00:00
4:00 PM,84.2,75.2,74,29.89,6.2,ENE,8.1,-,N/A,,Mostly Cloudy,60,2012-11-01 20:00:00
5:00 PM,82.4,75.2,79,29.89,6.2,ENE,6.9,-,N/A,,Mostly Cloudy,60,2012-11-01 21:00:00
6:00 PM,80.6,75.2,84,29.92,6.2,ENE,5.8,-,N/A,,Scattered Clouds,60,2012-11-01 22:00:00
7:00 PM,78.8,75.2,89,29.92,6.2,Calm,Calm,-,N/A,,Mostly Cloudy,0,2012-11-01 23:00:00
8:00 PM,78.8,75.2,89,29.95,6.2,Calm,Calm,-,N/A,,Mostly Cloudy,0,2012-11-02 00:00:00
11:00 PM,77,73,85,30.01,10,Calm,Calm,,,,Partly Cloudy,,2012-11-02 03:00:00
11:00 PM,77.0,73.4,89,30.01,6.2,Calm,Calm,-,N/A,,Scattered Clouds,0,2012-11-02 03:00:00